Theta_e
311 311 311 311 315 321 320 320 317 319 320 310 312 314 316 321 320 319 321 322 321 337 342 339 341 344 346 344 346 349 351 351 350 343 340 352 351 348 352 351 352 350 348 346 345 343 339 334 328 327 323 320 320 323 327 329 328 327 326 328 328 329 334 337 339 339 341 342 342 342 342 343 343 343 343 344 344 344 344 344 344 344 344 343 343 343 342 342 341 339 339 338 337 337 337 337 336
311 312 312 313 319 321 318 321 315 314 314 308 313 315 318 321 320 322 323 324 331 341 343 342 344 347 348 347 347 346 351 351 350 349 349 351 348 350 352 351 351 349 348 346 345 344 343 336 328 327 323 322 324 327 332 336 337 335 334 333 331 331 334 337 340 341 342 342 343 343 343 343 343 343 344 344 344 343 344 343 343 344 343 343 343 342 342 342 340 339 338 338 337 338 338 338 337
310 312 315 317 320 321 319 320 313 309 310 307 312 318 321 320 325 329 329 334 341 344 343 345 345 347 347 346 346 346 351 348 346 346 348 349 349 351 351 351 350 348 347 346 345 344 344 337 329 327 325 323 326 331 335 340 341 341 341 340 339 339 339 340 341 342 342 343 343 343 343 343 343 343 343 344 343 343 343 343 343 343 343 342 342 342 341 341 340 339 339 338 338 338 338 336 335
311 314 316 318 318 319 320 318 316 310 308 308 310 320 326 326 334 335 337 342 343 343 343 346 346 347 348 348 347 348 352 348 347 346 347 349 349 350 351 350 349 348 346 346 345 344 344 337 329 327 325 322 327 334 338 342 343 343 343 342 343 342 342 342 342 343 343 343 343 343 343 343 343 344 344 343 343 343 343 342 342 342 342 341 341 340 340 340 340 339 339 338 336 335 333 331 331
314 316 316 318 318 319 320 319 317 312 310 311 311 320 331 333 340 340 343 343 342 343 344 347 347 347 347 349 348 349 350 346 347 347 347 348 348 350 350 349 348 347 346 345 344 344 343 335 327 325 324 323 327 335 339 342 342 343 343 343 343 342 342 343 342 343 343 343 343 343 343 343 343 343 343 343 342 342 341 341 340 339 339 340 340 339 340 340 339 339 337 334 332 330 329 329 330
316 318 317 317 318 318 318 314 313 312 315 318 314 320 332 333 338 340 343 343 343 343 343 346 346 346 348 349 348 349 349 347 347 346 348 348 348 349 349 348 347 347 345 345 344 345 342 332 326 325 326 327 331 335 338 340 342 342 343 343 343 342 343 342 343 343 343 343 343 344 343 343 342 342 342 341 340 340 338 337 336 336 335 336 339 339 339 338 338 337 335 330 329 329 328 329 331
318 317 317 316 317 318 315 312 312 313 318 321 317 320 329 328 329 335 338 340 343 344 344 345 345 346 349 348 348 348 349 348 347 347 349 348 348 348 348 347 346 347 345 345 345 345 340 331 327 328 329 331 334 336 338 339 341 342 342 343 342 342 343 342 343 343 343 343 343 343 342 341 341 340 339 339 338 334 330 326 326 329 331 334 335 336 337 337 337 335 333 331 329 328 327 329 331
317 318 317 316 317 317 314 312 314 316 318 319 318 318 324 327 325 327 328 331 337 342 343 344 344 347 348 347 350 350 349 349 349 349 349 348 348 347 347 347 347 346 344 345 345 344 340 332 329 330 331 332 335 337 337 338 341 342 342 342 342 343 343 343 343 343 343 343 343 342 340 339 338 337 336 336 335 329 324 322 321 321 326 331 331 331 333 334 334 333 331 330 328 326 327 331 331
316 317 316 315 316 316 313 313 315 318 319 318 318 317 319 324 323 323 323 324 329 336 342 344 344 347 349 348 351 350 350 350 350 350 349 348 348 348 348 347 346 346 345 346 345 343 340 334 332 333 333 334 336 337 337 338 340 342 342 342 342 343 343 343 343 343 343 342 341 340 338 337 336 335 334 334 331 327 323 323 323 319 320 325 328 327 328 328 328 329 328 326 325 325 328 331 332
316 316 316 316 314 312 309 311 314 317 318 317 317 317 317 318 320 321 320 321 326 336 343 343 343 345 347 349 351 350 350 350 350 350 349 349 349 348 348 347 346 346 345 346 344 342 341 337 334 333 333 335 337 336 337 339 340 341 342 342 342 342 343 343 342 342 342 341 340 339 338 337 336 335 333 332 329 325 324 327 329 325 320 319 323 324 324 322 321 322 323 323 324 327 330 332 332
316 315 316 315 312 308 308 311 314 317 317 316 316 316 316 316 317 318 318 320 323 334 341 342 344 346 348 350 350 349 350 351 350 350 349 349 348 348 347 346 346 345 345 346 344 343 342 340 336 334 334 336 337 336 337 338 339 341 342 342 342 342 342 342 342 342 341 340 340 339 338 337 335 333 332 331 328 327 327 331 333 330 326 320 317 318 320 319 316 317 320 323 326 330 331 332 333
316 316 316 312 310 310 310 311 313 317 317 315 316 317 318 319 319 317 318 319 321 331 339 342 344 346 349 350 349 349 351 350 350 349 349 348 348 347 346 346 346 345 345 345 344 343 343 341 339 337 337 337 336 336 336 336 338 339 341 341 341 341 341 341 340 340 340 340 339 338 337 336 334 332 332 331 328 328 330 333 334 332 331 325 317 315 316 318 316 318 322 325 328 331 331 332 333
315 317 315 311 313 314 313 313 314 316 315 317 318 321 324 323 321 318 318 319 323 331 337 342 342 346 349 350 349 349 350 350 350 349 349 348 347 347 346 346 345 345 344 344 344 343 343 342 341 339 337 337 336 335 334 334 335 338 339 340 340 340 340 340 340 340 340 339 338 338 336 334 334 333 332 331 329 330 332 334 335 334 331 327 321 317 316 317 319 322 326 328 329 331 332 332 333
315 317 316 313 316 315 314 312 314 313 313 318 319 322 327 327 325 320 318 320 323 330 338 343 341 345 350 351 350 349 350 349 349 348 348 347 347 346 346 345 345 344 344 344 344 343 343 343 342 340 338 338 337 335 335 333 334 336 338 339 339 340 340 340 339 339 338 338 337 337 337 336 336 336 334 332 330 330 333 334 334 334 333 329 324 319 317 318 321 324 327 329 330 331 332 332 333
315 316 316 315 314 314 313 313 314 312 313 319 318 320 327 334 334 325 320 319 327 336 341 344 342 345 349 350 351 349 349 348 348 347 347 346 346 346 345 345 345 344 343 344 343 343 343 343 343 341 340 340 339 338 337 333 333 335 336 338 340 340 340 339 339 338 337 337 336 336 337 337 337 337 337 335 330 329 331 333 332 333 333 332 328 321 318 319 322 324 327 329 330 331 332 332 332
316 315 315 314 312 311 313 315 315 312 314 319 317 318 324 336 338 329 322 320 336 343 340 344 344 345 344 346 349 348 348 347 347 346 346 346 345 345 344 345 344 343 343 343 343 343 343 342 342 341 341 340 340 339 338 335 333 333 335 337 339 339 339 339 337 336 335 335 335 335 335 336 336 335 337 338 333 330 331 331 329 329 330 332 331 324 319 319 321 324 326 328 330 330 332 332 332
315 315 315 313 311 311 314 316 315 313 316 318 318 318 319 332 338 332 329 330 341 343 341 345 345 345 344 346 349 348 347 346 346 346 346 345 345 345 344 344 343 343 342 342 342 342 341 341 340 340 339 339 339 338 337 336 334 333 334 335 337 339 339 336 335 334 335 335 334 334 334 335 335 335 335 336 335 334 332 330 329 328 328 329 330 328 323 318 319 323 324 326 329 331 332 332 333
314 315 314 311 312 313 315 316 315 316 319 317 318 318 317 329 339 335 333 336 341 343 346 347 346 346 346 348 348 347 347 345 346 345 345 345 344 344 344 343 343 342 342 341 341 341 340 339 339 338 338 338 337 337 337 336 335 335 335 335 337 338 337 336 335 337 337 336 335 334 335 335 336 336 335 334 335 336 334 331 331 329 328 328 328 328 326 321 318 319 322 324 327 330 332 334 334
314 316 314 313 315 315 316 316 316 317 317 317 317 318 319 328 340 338 333 337 342 344 348 347 346 347 346 347 347 347 346 345 345 345 345 344 344 343 343 342 342 341 341 341 340 340 339 337 337 336 336 336 335 336 337 336 335 336 335 336 337 337 336 337 338 338 337 336 335 335 337 337 338 338 335 333 333 333 331 329 330 328 328 328 327 327 327 326 323 318 318 321 324 328 332 335 335
314 316 315 316 317 315 315 315 316 316 316 318 316 318 322 329 340 339 334 341 344 344 348 349 349 347 345 346 347 346 345 345 344 344 344 343 343 343 342 342 341 341 340 340 339 338 337 336 336 335 336 335 334 335 336 335 335 335 336 336 337 337 336 337 337 336 336 336 336 338 339 339 339 339 337 337 337 336 333 331 331 330 331 329 328 331 331 329 329 326 320 318 323 329 333 335 333
315 317 316 316 317 315 316 315 316 316 316 317 316 318 324 332 340 337 337 343 341 342 347 348 348 346 345 345 345 346 345 345 344 344 343 342 343 342 341 341 340 339 338 337 337 337 336 336 335 335 336 335 335 335 335 335 335 336 338 338 337 337 336 336 336 335 336 336 338 340 340 339 339 339 339 340 340 339 338 338 338 336 337 334 330 334 335 332 334 334 330 326 329 331 333 335 334
316 317 315 317 317 315 316 316 316 316 315 316 315 320 331 337 341 339 338 341 340 342 345 346 346 344 345 344 345 345 345 346 345 344 343 343 342 341 341 340 338 337 336 335 335 335 336 336 336 336 335 336 336 335 335 335 335 336 339 339 337 337 336 336 336 336 337 338 338 339 339 339 339 339 339 339 339 339 340 340 340 339 340 338 336 337 335 334 334 334 335 334 333 331 332 334 335
316 316 316 317 316 316 317 316 316 315 315 316 315 324 339 341 340 340 339 342 344 344 345 345 345 344 345 345 344 344 345 346 345 344 343 343 342 341 340 338 337 335 334 334 334 335 336 336 336 336 336 336 336 336 335 335 335 336 337 337 337 337 337 336 336 337 337 337 337 338 339 339 339 339 339 339 339 339 340 340 340 340 340 340 340 339 337 335 334 333 334 334 334 333 333 334 335
315 316 317 317 316 316 316 316 316 315 315 316 314 322 338 341 342 342 340 344 346 344 344 343 344 346 346 345 344 344 345 347 346 345 344 343 341 340 339 337 335 333 333 334 334 335 336 336 336 336 336 336 336 336 336 335 335 336 337 337 336 336 336 336 336 336 336 337 337 339 340 339 339 339 338 339 339 339 340 340 339 340 340 340 340 340 340 338 336 334 334 333 333 333 333 333 334
313 314 316 316 316 315 315 316 316 316 315 315 314 317 334 342 343 343 342 345 346 344 343 343 344 345 345 344 344 345 346 346 346 344 343 342 341 339 337 335 334 333 333 334 335 335 336 336 336 336 336 336 336 336 336 336 336 337 336 337 337 337 337 337 337 337 338 338 338 339 340 340 339 339 338 338 338 339 340 339 339 339 339 340 340 339 340 340 339 338 336 334 332 332 333 334 334
313 314 316 316 316 316 316 316 316 315 315 317 317 316 331 344 343 344 346 347 345 344 343 342 344 345 345 345 344 345 345 345 345 342 342 341 340 339 336 335 334 333 333 335 336 336 337 337 337 337 336 336 336 336 336 337 337 337 337 338 338 339 339 339 339 339 339 339 339 340 340 340 340 339 339 338 338 338 338 338 338 338 338 339 339 339 339 339 340 339 339 338 336 334 333 333 334
315 315 316 316 316 316 315 315 315 315 317 321 322 320 332 345 345 346 348 347 345 344 344 343 344 345 346 344 344 346 345 344 343 341 341 341 340 338 336 335 334 334 334 336 337 337 338 337 338 337 337 337 336 337 337 338 338 338 339 340 340 340 340 340 340 340 339 339 339 339 339 339 339 339 338 338 337 337 337 338 338 338 338 338 338 338 338 338 338 339 339 339 339 338 336 335 334
315 315 315 315 315 316 315 315 315 314 318 325 327 329 337 345 345 346 347 346 345 345 345 344 344 346 346 345 344 346 346 344 342 341 341 341 340 338 336 335 335 335 335 336 338 338 339 339 339 339 338 338 338 338 339 339 340 340 340 341 341 340 339 340 340 339 339 339 338 338 338 338 338 338 337 337 337 338 338 338 338 338 337 337 337 337 336 337 337 337 338 338 339 339 338 337 336
314 314 315 315 314 315 314 315 316 314 319 326 330 332 338 343 343 346 347 345 345 345 346 344 344 346 346 345 344 344 345 344 343 342 341 341 340 339 337 337 336 336 336 337 339 339 340 341 340 341 340 340 339 339 340 340 340 341 341 341 340 339 339 339 339 339 339 338 337 337 337 337 337 337 337 337 337 338 338 338 337 337 337 337 337 337 336 337 336 337 337 337 337 338 338 339 338
314 313 314 314 313 313 315 316 315 314 320 328 331 326 331 343 346 347 346 344 346 346 346 346 345 347 345 345 344 343 344 343 343 342 342 341 340 339 338 338 338 337 337 338 340 341 341 341 341 341 340 340 339 340 341 341 340 341 341 341 340 339 339 339 339 339 338 337 337 337 337 337 337 337 337 337 338 338 337 337 337 337 337 337 337 337 337 337 336 337 336 336 336 336 337 338 338
313 313 313 314 311 311 315 317 314 317 325 333 333 322 327 346 346 342 342 343 346 345 345 346 345 346 344 343 343 343 343 342 343 342 341 342 340 339 339 340 340 339 339 340 341 341 340 341 341 340 339 339 340 340 341 341 341 340 340 340 339 339 338 338 339 339 338 338 338 338 337 337 337 337 337 338 338 338 337 337 337 337 337 337 337 337 337 337 337 337 337 336 335 335 335 336 337
313 312 311 312 311 311 315 316 313 321 331 336 330 322 333 349 340 335 335 336 338 337 338 340 339 340 340 339 341 341 340 341 342 342 342 341 340 340 340 340 340 340 340 340 340 340 340 340 340 340 339 340 341 341 341 340 340 340 339 339 339 339 338 338 339 339 338 338 337 337 337 337 337 337 337 337 338 337 337 337 337 337 337 337 337 337 337 337 337 337 337 336 336 335 335 336 336
313 312 309 310 310 310 313 315 314 321 333 335 327 325 340 348 337 332 334 333 334 335 337 337 336 338 338 336 337 337 337 341 342 341 342 341 341 339 337 337 339 340 340 340 339 339 339 339 340 340 340 341 340 340 341 340 340 340 339 338 338 338 338 338 338 338 338 337 337 336 336 337 336 337 337 336 337 337 337 337 337 337 337 337 337 337 337 337 337 337 336 336 336 336 336 337 337
311 312 311 311 311 311 311 314 317 322 330 332 327 331 343 346 339 334 336 337 337 338 338 337 337 339 338 336 336 335 336 341 342 340 340 341 338 334 333 335 337 338 338 337 338 339 339 340 340 340 340 340 339 339 340 339 339 339 338 338 338 338 337 337 337 337 337 336 336 336 336 336 336 336 336 336 337 337 337 337 337 337 337 337 337 337 337 337 337 337 337 336 336 336 337 337 337
310 310 311 312 311 311 312 314 319 324 328 329 328 334 343 346 342 338 339 339 339 340 339 338 338 338 338 337 337 335 334 336 337 337 338 340 337 333 334 335 335 336 336 336 338 340 340 340 339 339 339 339 339 339 339 339 339 338 338 338 337 337 336 336 336 336 336 336 336 336 336 336 335 336 336 336 337 336 336 336 336 336 336 336 336 336 337 337 337 337 336 336 337 337 337 337 337
313 312 311 311 310 310 315 320 324 326 326 328 328 334 344 346 345 342 341 341 340 339 340 340 339 338 338 338 337 335 333 333 332 331 333 336 335 335 336 337 336 337 337 337 339 339 339 339 338 339 339 339 339 339 339 339 339 338 337 337 336 336 336 336 336 335 335 335 335 335 335 335 335 335 335 335 335 335 335 335 335 335 335 336 335 336 336 335 335 336 335 335 336 336 336 336 337
315 313 312 311 310 311 317 323 328 330 326 327 330 336 344 346 345 344 342 342 341 339 339 340 339 338 338 337 336 333 333 333 331 329 329 331 333 334 334 336 337 337 337 337 338 338 338 338 338 339 339 339 339 339 339 339 339 338 337 336 336 336 336 335 335 334 334 335 335 335 335 335 334 334 334 335 334 334 335 334 335 335 335 335 336 336 335 335 335 334 334 335 334 335 335 336 336
314 313 311 311 311 314 321 324 328 333 329 330 336 337 342 345 344 343 341 341 342 340 339 339 339 338 337 336 335 332 332 332 332 331 330 330 332 332 332 334 335 335 337 337 337 337 337 337 337 337 338 338 338 338 338 337 337 337 336 336 336 335 335 335 334 334 334 334 334 334 334 334 333 333 333 333 334 334 334 334 334 334 335 335 335 335 335 335 334 334 334 334 334 334 334 334 336
313 313 311 309 313 318 324 326 327 329 328 331 336 336 340 344 343 341 341 340 340 339 338 338 339 337 336 336 335 333 333 333 333 332 331 331 330 330 330 332 333 333 335 335 336 336 336 336 336 336 336 336 336 336 336 337 337 337 336 336 335 334 334 334 333 333 332 332 331 331 331 332 332 332 332 332 332 333 333 333 333 333 333 333 334 334 334 334 334 334 333 333 333 333 333 334 335
313 313 309 310 316 317 318 324 328 328 327 331 335 336 340 343 342 340 340 338 338 337 337 337 338 338 337 336 334 334 335 334 333 332 332 331 330 330 330 330 331 332 332 333 334 335 334 335 335 335 335 335 335 335 336 337 337 336 335 335 334 334 333 332 332 331 330 330 330 330 329 330 330 330 330 330 330 330 330 331 331 331 331 331 331 331 330 331 331 332 332 332 332 332 332 333 333
313 313 311 312 316 315 316 324 327 326 329 333 333 331 336 341 341 341 338 337 337 336 336 336 336 337 337 334 333 335 335 334 334 332 331 330 330 329 329 329 331 330 331 331 332 332 332 332 333 333 334 334 334 334 335 335 335 335 334 333 333 333 332 332 331 330 330 329 329 328 326 326 327 327 327 327 327 327 327 327 327 328 327 327 327 326 326 326 327 328 328 329 330 331 331 332 332
312 313 313 314 316 318 323 326 323 323 328 333 326 321 328 336 339 341 339 338 339 337 337 336 334 336 336 335 333 333 333 333 332 330 328 328 329 328 328 328 329 328 328 328 329 329 329 330 330 331 332 333 332 333 333 334 334 334 333 333 333 333 332 331 331 329 328 327 327 326 325 323 323 324 324 323 323 323 323 323 324 324 324 323 323 323 324 323 324 324 324 325 327 328 329 330 331
311 312 315 317 318 320 324 323 319 318 324 333 325 319 326 333 335 339 340 340 341 338 337 336 335 335 336 335 333 331 331 330 329 328 328 328 328 327 327 326 326 326 325 325 326 327 328 329 328 328 329 330 330 330 331 331 332 332 332 332 332 332 331 330 328 327 326 325 325 324 324 321 321 321 321 320 320 321 321 320 321 321 321 320 320 321 321 321 322 323 323 323 324 326 327 328 329
311 312 315 319 322 321 321 320 316 315 322 331 329 322 324 329 333 338 339 340 342 339 338 337 335 334 335 334 333 332 331 329 327 327 327 328 328 326 325 324 324 324 323 323 323 324 325 325 325 326 327 327 327 327 328 329 329 329 329 329 329 329 329 327 325 324 324 323 323 323 322 320 319 318 318 318 318 318 319 318 318 318 318 318 318 319 318 319 320 321 321 322 323 324 325 326 327
312 313 314 318 322 322 321 318 315 318 322 324 325 322 320 323 331 338 339 339 341 340 338 337 336 335 334 334 333 332 331 328 326 327 326 326 326 325 324 323 323 322 321 321 321 321 322 323 323 324 325 325 325 325 325 326 326 326 327 327 326 326 325 324 323 322 322 322 322 322 322 320 318 317 316 316 316 316 316 316 316 316 316 316 316 317 317 317 318 318 319 319 320 321 321 323 325
313 313 314 316 320 321 321 318 316 319 321 318 320 320 315 318 330 336 337 337 338 339 338 337 336 335 334 334 332 331 329 326 325 326 326 325 324 323 323 322 321 321 320 320 321 321 321 323 323 323 323 323 323 322 323 323 323 324 324 324 324 323 323 322 321 321 321 321 321 321 320 318 317 316 315 314 314 314 313 313 313 313 313 313 313 313 314 315 315 316 317 318 319 319 319 320 321
314 315 315 316 317 319 320 319 318 318 317 314 317 320 313 316 327 333 335 336 335 336 337 336 336 335 334 333 331 328 327 326 325 325 325 324 323 322 321 321 320 320 319 320 321 321 321 322 322 322 321 321 321 321 321 321 321 321 321 322 321 321 321 321 320 320 320 320 320 319 319 317 316 315 313 312 311 311 310 310 310 310 310 310 311 311 312 312 313 314 315 315 316 316 316 317 317
314 315 314 314 314 315 315 316 318 317 315 312 316 321 315 313 321 329 333 334 333 334 336 337 336 335 334 332 329 328 328 326 325 324 324 324 323 321 321 320 319 319 320 320 321 321 321 320 320 320 319 319 319 319 319 319 318 318 319 319 318 318 318 319 318 318 318 318 318 318 317 316 315 314 312 310 309 309 310 310 309 309 309 309 309 310 310 310 311 312 312 312 312 313 313 313 314
314 314 312 312 312 313 313 314 316 314 313 314 317 320 316 313 319 328 331 331 333 334 334 336 335 334 334 331 330 330 327 325 325 324 323 324 323 322 321 320 320 320 320 320 320 320 319 319 319 318 317 317 317 317 316 316 316 317 317 317 316 316 316 316 316 316 316 316 316 316 316 315 314 313 311 310 309 309 309 309 308 308 308 308 308 308 309 309 310 310 310 309 310 310 310 310 312
312 312 312 311 311 314 315 314 314 313 313 317 319 319 316 314 322 331 330 329 333 334 333 334 334 333 333 331 329 328 327 325 325 323 323 324 324 323 322 322 322 321 321 320 320 319 319 318 318 317 316 316 316 315 315 315 315 315 315 315 315 314 314 314 314 314 314 314 314 314 314 313 312 311 310 309 309 308 308 307 307 307 307 307 307 307 308 308 308 308 308 308 308 308 308 309 310
311 313 313 311 310 313 314 313 312 312 314 318 320 320 315 315 324 331 331 332 333 333 332 333 333 333 332 330 328 328 327 326 325 324 323 324 323 323 323 324 323 322 321 321 320 319 318 318 317 317 316 315 315 315 314 314 314 313 313 313 313 313 313 312 313 312 312 313 313 313 312 312 311 310 309 308 307 307 307 306 306 306 306 306 306 306 307 308 308 307 307 307 307 307 307 308 309
311 313 312 311 312 312 311 314 315 313 316 320 321 320 319 322 329 330 329 332 333 332 332 333 333 333 331 329 328 328 328 326 326 324 323 324 324 323 324 324 323 322 320 320 319 318 318 317 316 316 315 315 314 314 314 313 312 312 312 311 311 311 311 311 311 311 311 311 311 311 310 310 309 308 307 307 306 306 306 305 305 305 305 305 305 306 306 307 307 307 307 307 307 307 307 308 308
311 311 310 312 315 313 311 314 317 315 315 319 319 318 322 325 328 329 329 331 333 331 332 332 333 331 329 328 328 329 328 326 325 324 323 324 324 323 323 322 321 320 319 318 318 317 317 316 316 315 315 314 314 313 313 312 311 311 310 310 310 310 310 310 310 310 310 310 309 309 309 308 308 307 306 306 305 304 304 304 304 304 304 304 304 305 305 306 306 307 307 307 306 307 307 307 307
311 309 311 313 314 315 312 312 314 313 313 316 317 317 319 318 322 331 333 332 333 332 331 332 333 330 329 329 329 329 328 326 324 324 323 324 323 322 321 320 319 319 318 317 317 316 316 316 315 315 314 314 313 312 312 311 310 310 310 309 309 309 309 309 309 308 309 308 308 308 307 307 306 306 306 305 304 304 304 304 304 304 303 303 303 304 304 305 305 305 306 306 305 306 307 307 307
311 311 313 313 312 312 312 312 313 312 311 316 318 317 317 315 321 331 333 332 333 332 331 332 332 331 330 329 329 328 326 325 324 323 323 323 322 321 321 320 319 318 317 317 316 316 316 315 314 314 313 313 312 311 311 310 310 309 309 309 308 308 308 308 307 307 307 307 307 306 306 306 305 305 305 304 304 304 303 303 303 303 303 302 302 303 303 303 304 304 304 304 304 305 306 306 306
311 312 312 312 312 311 311 312 313 313 311 313 318 320 317 316 322 331 332 332 333 332 332 331 331 331 331 330 329 327 325 324 323 321 321 321 320 320 320 319 318 317 317 316 316 315 315 314 314 313 313 312 311 310 310 309 309 309 308 307 307 307 307 306 306 306 306 306 306 306 305 305 305 304 304 304 304 304 303 303 303 302 302 302 302 302 302 302 303 303 303 303 303 303 304 304 305
309 310 311 311 312 312 313 312 310 311 311 311 317 320 317 319 326 330 331 333 333 332 332 331 330 331 331 329 327 326 324 323 321 320 320 320 319 319 318 318 317 317 316 316 315 315 314 314 313 313 312 311 310 309 309 309 308 307 307 306 306 306 306 306 306 305 305 305 305 305 304 304 304 304 303 303 303 303 303 302 302 302 302 302 301 301 302 302 302 302 302 302 302 302 302 303 304
310 310 311 311 311 311 312 313 311 310 310 311 314 315 317 326 332 329 329 332 333 332 332 331 330 331 329 328 326 325 324 322 321 320 320 320 319 318 317 317 317 316 316 316 315 314 314 313 313 312 311 310 309 308 308 308 307 306 306 305 305 305 305 305 305 305 304 304 304 304 303 303 303 303 303 303 303 303 302 302 302 302 301 301 301 301 301 301 301 301 301 301 301 301 302 302 303
Wind_Speed
5 5 5 6 6 8 7 4 5 2 4 7 6 8 2 3 2 7 7 4 3 2 3 3 1 0 1 2 4 6 11 7 4 1 1 6 12 15 18 22 24 22 22 21 20 18 17 17 16 14 13 13 16 19 18 17 16 16 15 15 14 15 16 17 17 16 15 14 14 14 14 13 13 13 13 13 12 12 12 12 12 11 12 13 13 14 15 15 14 14 13 13 13 13 14 14 15
4 4 4 5 5 8 3 1 6 5 6 7 7 7 1 0 4 5 7 7 4 4 3 0 2 2 3 3 4 4 8 12 9 7 7 14 16 16 20 23 23 21 21 21 20 19 17 16 16 15 15 14 16 18 19 18 17 16 16 16 15 16 15 15 15 14 14 14 14 14 14 13 13 13 13 13 12 12 12 12 12 12 12 13 13 13 14 14 13 13 13 12 12 12 12 12 12
3 3 3 4 5 6 2 2 6 7 7 8 8 3 3 5 4 3 4 4 3 3 2 3 3 2 3 4 4 1 5 9 11 11 10 16 15 16 21 22 22 21 20 21 19 18 17 16 16 16 16 15 15 18 19 18 17 16 15 15 15 15 14 14 14 14 14 14 14 14 14 13 13 13 13 14 13 13 13 13 13 13 13 13 13 12 13 13 12 12 12 11 11 11 10 9 10
2 3 3 5 5 5 4 4 5 7 7 7 8 3 3 4 3 3 3 3 2 1 1 3 3 3 4 2 3 3 8 7 10 11 10 14 15 18 21 21 21 20 19 19 18 17 16 16 18 17 16 15 16 19 19 18 16 15 15 14 14 14 14 14 14 14 14 14 14 14 14 14 14 13 13 14 14 14 13 13 13 13 13 12 12 12 12 11 11 11 11 11 10 10 9 9 10
2 3 4 6 5 3 3 5 5 7 8 8 8 2 3 2 4 4 4 2 1 2 2 3 2 3 2 6 4 2 8 7 9 11 12 15 18 21 21 21 20 19 18 18 18 17 15 17 19 18 16 15 16 19 18 17 16 16 15 15 14 14 14 14 14 14 14 14 14 14 14 14 14 13 14 14 13 12 11 11 10 10 11 11 11 11 10 10 10 10 10 10 9 9 9 10 10
3 4 5 6 3 2 4 6 6 8 8 7 9 3 2 2 3 3 3 2 2 1 2 3 1 4 5 7 6 5 5 5 10 10 13 17 19 21 20 20 19 18 18 18 18 16 16 18 19 17 16 15 16 18 18 17 16 15 15 14 14 14 14 14 14 14 14 14 15 14 14 14 14 13 13 12 12 10 9 8 7 7 8 9 9 9 9 9 9 9 9 8 8 8 9 9 9
4 4 4 5 2 2 7 8 9 9 4 2 7 3 3 4 3 2 2 3 3 3 2 3 3 5 6 5 6 7 4 5 9 10 16 19 20 20 19 18 18 19 18 18 18 17 17 18 18 17 16 15 16 17 19 18 16 15 14 14 14 14 14 14 14 14 14 14 14 14 14 14 13 12 12 11 10 9 9 8 7 6 6 6 7 7 7 7 8 8 8 6 6 7 8 9 9
5 4 2 4 4 4 7 9 9 9 1 2 4 4 4 5 3 3 3 2 1 3 4 5 7 4 5 5 3 5 4 8 11 15 19 19 20 19 18 18 19 18 17 18 18 18 16 17 18 17 16 15 16 17 19 18 16 15 14 14 14 13 13 13 14 14 14 14 14 13 13 13 12 12 11 10 9 9 9 8 7 6 5 5 5 6 7 7 7 8 6 5 5 6 7 8 9
7 5 2 4 6 5 7 9 9 8 3 1 4 6 6 5 5 6 5 4 1 2 5 6 7 4 6 7 6 7 8 12 15 19 19 19 20 18 18 18 18 19 18 18 19 18 15 16 17 16 16 15 16 17 18 18 17 15 14 14 13 13 13 13 13 13 14 13 13 13 13 12 11 11 10 9 9 9 9 8 8 8 6 4 5 5 5 6 6 7 6 5 6 6 7 8 9
6 5 3 4 6 7 8 9 8 5 4 4 5 6 7 8 8 8 8 6 3 4 5 4 5 5 8 9 8 6 9 15 18 19 19 19 19 18 18 17 18 20 19 18 19 18 16 16 16 16 15 15 16 17 18 18 16 15 14 13 13 12 12 12 12 13 13 12 12 12 12 11 10 10 9 9 9 9 9 9 9 9 8 6 4 4 5 5 6 7 7 7 6 6 7 7 9
5 4 3 5 7 8 9 8 7 3 3 4 5 6 7 8 9 9 9 7 5 5 6 6 6 10 10 9 6 5 11 16 18 19 19 18 18 17 18 17 18 19 19 19 19 19 17 15 15 15 16 17 17 17 17 17 16 14 13 13 12 12 12 12 12 12 12 12 11 11 10 10 9 9 9 9 9 9 9 10 9 9 9 7 6 4 5 6 7 8 10 9 8 7 6 7 8
6 5 4 7 8 8 8 8 6 2 4 5 5 5 5 6 8 9 10 10 8 7 8 8 7 11 10 9 5 7 13 15 17 18 18 17 17 17 17 17 17 17 18 18 19 19 18 16 15 15 16 17 17 17 17 16 15 14 13 13 12 12 12 12 12 11 11 11 11 10 10 9 9 8 8 9 10 10 10 10 9 9 8 7 7 5 5 7 9 11 12 11 8 7 6 7 7
6 5 6 7 6 7 7 7 4 3 4 5 3 3 3 6 8 9 11 11 10 9 10 8 8 9 7 9 7 8 12 15 17 17 18 18 17 17 16 17 17 17 16 17 18 19 18 17 16 14 14 15 15 15 15 14 14 13 13 12 11 11 12 12 11 11 11 10 10 10 9 8 8 8 8 9 10 10 10 10 9 8 7 6 6 6 6 8 11 13 12 10 9 7 6 6 6
6 4 6 6 5 6 7 7 5 6 5 6 4 1 3 5 6 7 8 12 12 8 8 8 9 8 7 9 6 7 12 18 19 18 19 17 17 17 17 18 17 16 15 16 17 18 17 16 16 14 14 14 13 13 13 13 13 13 13 12 11 11 12 12 11 11 10 9 9 9 8 8 7 7 7 8 9 9 10 10 8 8 7 6 6 6 7 8 10 11 11 9 8 6 5 5 5
5 3 5 6 5 7 7 7 5 6 5 8 4 2 3 3 3 7 9 11 8 5 7 9 8 5 8 10 8 10 15 21 20 18 19 17 18 18 18 18 17 16 15 16 16 16 16 15 15 14 14 14 13 13 12 12 13 13 12 12 10 10 12 12 11 11 9 9 8 8 7 7 6 6 7 7 7 8 9 8 8 8 7 6 6 6 7 8 8 9 9 8 7 6 5 5 5
5 4 5 6 7 7 7 7 5 6 5 8 3 2 4 3 3 7 8 8 6 8 7 8 5 1 6 10 12 18 20 22 21 19 19 18 18 18 18 17 16 15 15 15 14 14 15 15 15 13 13 13 13 13 12 11 11 12 12 11 10 10 12 11 10 8 7 8 7 6 6 5 4 5 6 5 5 6 7 6 7 7 7 7 6 6 6 7 7 7 7 7 6 5 5 5 6
4 5 7 6 8 8 6 8 5 3 6 7 2 1 5 1 4 4 3 6 8 11 7 6 4 1 4 11 20 25 23 22 21 20 20 19 18 17 17 16 15 14 13 13 13 13 14 13 13 12 12 12 12 13 13 12 11 11 11 11 10 10 10 10 8 6 6 6 5 4 5 4 4 4 4 4 4 4 4 5 5 5 6 7 7 7 6 5 6 6 6 6 6 5 5 5 5
6 6 7 7 8 7 4 6 3 1 5 4 1 2 5 3 5 5 6 9 11 11 8 7 7 7 12 18 25 26 24 23 22 20 20 18 17 16 16 15 14 14 12 12 11 12 13 12 12 12 12 12 12 12 12 12 12 11 10 10 10 9 9 9 8 7 6 5 4 4 4 5 5 5 5 4 5 3 2 3 3 3 5 5 6 7 6 4 3 5 5 5 5 5 4 3 2
8 6 7 8 6 2 2 2 2 1 1 3 3 2 5 4 5 7 10 12 13 13 10 10 10 12 15 20 24 25 23 22 20 19 19 17 16 15 15 14 14 14 13 12 12 12 12 12 12 12 13 13 12 12 12 12 12 11 11 10 10 10 8 7 7 6 6 5 4 5 5 5 5 5 5 5 6 5 3 3 3 3 3 3 4 5 6 5 4 2 3 5 5 4 3 2 2
8 7 7 7 4 2 3 2 1 2 3 5 4 5 5 4 6 8 10 13 14 14 12 12 14 15 17 19 22 24 23 21 20 19 18 17 16 15 15 14 14 14 13 13 13 11 11 12 12 12 12 12 12 12 12 12 11 11 10 10 11 10 8 6 6 6 6 6 5 5 5 4 4 4 4 4 5 5 3 4 4 4 3 2 2 2 3 4 5 4 1 3 4 4 4 4 3
7 8 8 3 3 4 4 4 2 1 3 5 6 7 5 5 7 8 11 12 13 12 11 12 14 18 19 19 21 23 22 21 20 19 18 18 16 15 14 14 13 13 13 13 12 12 11 12 12 12 12 12 11 11 11 11 11 10 10 10 11 10 8 7 7 7 7 6 5 4 3 3 3 3 3 3 3 3 3 3 4 3 2 2 2 1 1 2 2 2 2 1 4 5 5 5 4
5 9 9 2 3 6 4 4 2 1 3 4 6 7 2 7 8 9 13 12 6 8 10 9 13 17 18 20 21 22 20 19 19 18 18 18 17 16 14 14 13 13 12 12 12 12 12 12 12 12 12 12 11 11 11 12 11 10 9 10 10 9 8 8 7 7 6 5 4 3 2 2 2 2 2 2 2 2 2 2 2 2 2 2 2 1 0 1 1 1 0 0 2 4 5 6 6
7 8 9 5 5 4 2 3 2 1 5 5 5 5 2 7 8 9 13 7 2 3 9 9 13 17 19 20 19 19 18 17 18 17 17 17 17 16 15 14 13 13 13 12 12 12 12 12 12 12 12 12 11 11 12 12 11 9 9 9 9 9 8 7 7 6 5 4 3 2 1 1 1 1 1 1 1 2 1 1 1 1 1 1 1 1 1 1 1 1 2 2 2 3 4 5 6
10 6 7 8 8 6 3 4 3 3 6 6 6 5 5 10 7 8 11 5 3 3 9 11 15 19 20 19 16 17 16 17 17 16 17 17 17 16 15 14 13 13 13 13 12 12 12 12 12 12 12 12 12 12 11 11 10 10 9 8 8 9 8 7 6 5 4 3 2 2 1 0 1 1 1 1 0 1 1 1 1 1 1 1 1 1 1 1 1 2 3 3 4 4 4 5 6
13 8 5 7 7 7 7 6 5 5 6 6 6 7 8 9 6 8 9 5 4 7 11 14 17 19 18 17 17 17 16 16 16 15 16 17 17 16 15 14 13 13 14 14 13 13 13 13 13 12 13 13 12 12 12 11 10 10 9 9 8 8 7 7 6 5 4 3 2 1 1 0 0 1 1 1 1 1 1 1 2 2 1 2 2 2 2 2 2 2 3 4 5 5 5 5 6
12 12 6 7 7 6 7 6 7 6 5 5 7 9 8 7 6 7 7 5 7 10 14 16 18 19 17 16 17 16 15 15 16 16 16 16 18 16 14 14 14 14 15 14 13 13 13 13 13 13 13 13 12 12 12 11 10 10 9 9 8 7 6 5 4 3 3 2 1 1 0 0 0 0 1 1 2 1 1 1 2 2 2 2 2 3 2 3 3 3 3 4 5 5 6 6 7
7 13 8 8 7 5 6 6 6 5 5 6 7 8 7 8 7 6 7 7 10 12 15 17 18 18 17 16 16 15 15 15 16 16 16 17 17 16 15 14 14 15 15 15 14 14 14 14 14 14 13 13 12 12 11 11 11 10 9 8 7 6 5 4 3 3 2 2 1 1 1 1 0 0 1 1 1 1 2 2 2 2 2 3 3 3 3 3 4 4 4 4 5 6 6 6 8
4 10 9 9 9 6 8 8 7 6 5 7 7 6 8 8 8 5 9 11 12 14 15 17 18 17 17 17 15 13 13 15 16 16 16 17 15 16 16 15 16 16 16 15 14 14 14 14 14 13 13 13 12 12 11 11 10 10 9 7 6 6 5 4 3 3 2 2 1 2 1 1 0 0 1 1 1 1 2 2 2 2 2 3 3 3 3 3 4 4 5 5 6 6 7 7 8
4 7 7 10 10 9 12 10 8 7 6 7 7 7 9 10 8 6 11 12 12 14 15 15 16 16 16 15 13 11 13 15 15 15 15 15 15 16 16 15 16 16 15 16 15 15 14 14 13 12 12 12 11 10 10 10 10 9 8 7 6 6 5 4 4 3 2 2 2 2 1 1 1 1 1 1 1 1 1 2 2 1 2 2 2 2 3 3 3 4 5 5 6 7 7 8 8
6 7 6 7 9 10 13 11 8 8 6 8 9 7 9 11 6 6 8 11 14 14 13 14 14 14 14 12 11 10 12 13 13 14 15 15 15 16 17 17 17 16 16 16 16 15 14 13 12 12 12 12 11 10 9 9 9 9 9 7 6 6 5 5 4 3 2 2 2 2 2 2 1 1 1 1 1 1 1 1 1 1 2 2 3 3 3 4 4 4 4 5 6 7 8 8 8
8 8 6 5 7 9 12 11 9 9 7 9 10 8 8 10 6 9 6 4 11 10 7 8 8 8 9 8 8 10 11 11 13 13 14 15 16 17 17 17 16 15 16 17 17 16 15 14 13 12 13 12 11 10 10 9 9 9 9 8 7 6 6 6 5 3 3 3 3 3 2 1 1 1 1 1 1 1 1 1 2 2 3 3 3 4 4 4 4 4 4 5 6 7 8 8 9
9 8 7 7 7 8 12 9 10 10 7 9 10 7 6 9 10 11 8 7 10 10 9 8 7 7 6 5 4 7 8 9 12 13 13 14 15 16 16 16 15 14 15 17 18 17 16 15 14 13 13 12 10 10 10 9 9 10 9 8 7 7 6 6 5 3 3 3 4 4 3 2 2 1 1 1 1 2 2 2 3 3 4 4 4 4 5 5 5 6 6 6 7 7 8 9 9
8 8 7 8 10 8 10 8 9 9 8 10 11 5 5 7 9 7 7 10 11 10 11 11 10 8 8 8 5 3 4 5 10 10 11 12 12 13 14 15 14 14 16 16 16 16 14 14 13 13 12 12 11 10 11 10 10 10 9 8 7 7 6 6 4 4 4 5 5 5 4 3 2 2 1 1 2 3 3 4 4 4 4 4 5 5 5 6 6 6 7 6 7 8 8 9 10
8 9 7 9 12 9 9 9 8 10 10 11 11 4 4 7 9 9 9 11 10 11 13 12 12 9 9 9 5 4 4 3 6 7 8 9 10 12 13 14 13 14 15 15 15 15 14 13 12 12 12 12 11 11 11 11 10 9 9 8 7 7 6 6 5 5 5 5 5 5 4 4 3 3 3 2 3 3 4 4 4 4 5 5 5 6 6 6 6 6 7 7 7 8 8 9 10
11 11 8 8 11 10 9 9 9 12 12 11 11 6 6 7 10 11 11 12 10 11 13 13 12 10 10 9 7 8 7 6 9 8 6 8 10 13 14 16 14 13 15 15 14 14 13 13 12 12 11 11 11 11 11 11 10 10 10 9 8 8 7 7 7 7 7 6 6 6 5 4 4 4 4 4 4 4 5 5 5 5 6 6 6 6 6 7 7 7 8 8 8 8 9 9 10
13 13 10 8 10 8 5 8 8 12 12 11 10 7 7 7 10 12 13 12 12 13 13 12 12 10 10 8 8 10 7 5 9 13 12 11 9 11 14 15 14 14 16 15 14 14 13 13 13 12 11 10 11 10 9 9 9 9 9 8 8 8 8 7 8 7 7 7 7 7 6 6 6 5 5 5 5 5 5 6 6 6 6 6 6 6 7 7 8 8 9 9 9 9 9 9 9
12 13 11 9 10 8 6 8 7 8 10 9 8 9 9 8 9 11 12 12 12 14 13 12 12 10 9 9 9 10 8 9 9 8 9 10 9 10 13 14 16 16 16 15 14 14 13 13 13 13 11 10 9 9 8 7 7 7 8 8 8 8 6 6 7 6 6 6 6 7 7 7 7 6 6 6 6 6 6 6 6 6 6 5 5 5 6 6 6 7 7 8 9 9 9 8 8
9 11 11 9 8 7 7 7 7 6 7 7 9 11 10 7 8 9 10 12 11 12 13 13 14 12 10 11 11 11 9 9 11 9 7 8 10 12 12 12 14 16 16 15 14 13 13 12 12 12 12 11 10 9 8 7 7 7 9 9 8 6 5 5 5 5 5 6 6 7 7 7 7 7 7 6 6 7 7 7 6 6 7 6 6 6 6 6 5 6 7 9 9 10 11 9 8
7 8 10 8 7 9 8 7 9 7 6 8 10 10 8 6 8 7 7 9 9 10 12 12 14 14 12 12 12 12 10 9 10 9 9 10 11 14 13 10 11 13 15 15 14 14 14 12 12 12 12 11 10 9 8 8 8 8 9 8 7 6 5 5 6 6 7 7 7 7 7 7 6 6 7 7 7 7 8 8 8 8 8 8 9 8 8 8 7 8 9 10 11 12 12 9 7
7 8 9 8 9 9 7 8 10 8 5 9 11 9 7 6 8 8 4 5 8 10 12 11 12 13 14 13 12 12 11 11 11 10 11 11 11 14 13 11 12 13 14 14 14 15 14 13 13 13 12 10 9 9 8 8 8 8 8 7 6 6 6 7 7 8 7 8 8 8 8 8 7 7 7 7 6 7 7 8 8 8 8 9 10 9 10 10 10 10 10 11 12 13 13 12 9
8 9 8 8 11 9 7 11 11 8 7 11 12 8 6 6 7 7 5 6 9 10 12 11 10 11 12 11 9 9 9 12 13 11 11 11 10 12 12 12 13 13 13 13 14 15 15 14 13 11 11 9 8 8 7 8 8 8 8 8 7 7 7 7 7 7 7 7 7 8 9 9 8 8 8 8 7 7 8 8 8 9 9 10 11 11 11 11 11 11 11 12 13 13 14 15 13
8 8 5 5 12 10 10 15 13 9 8 11 12 7 5 7 9 9 8 8 11 11 13 12 9 9 10 10 10 8 8 10 13 11 10 12 13 13 12 12 15 16 13 13 16 17 16 14 12 12 11 9 8 7 6 6 6 6 6 6 6 7 7 6 6 7 7 7 7 7 8 11 11 10 10 10 9 9 10 9 9 9 9 11 12 11 11 11 12 12 12 12 13 13 14 15 15
7 9 4 5 11 12 14 16 12 8 8 11 12 8 5 7 9 11 10 10 12 12 13 14 11 10 9 9 10 10 9 10 11 11 10 13 16 16 13 13 16 17 15 15 17 17 15 13 11 11 11 9 8 7 6 5 4 3 2 2 2 3 6 6 5 6 6 6 6 5 6 9 11 11 10 10 11 11 11 11 11 11 11 11 12 12 13 13 12 11 12 12 12 12 13 14 15
5 12 10 8 11 13 14 14 11 8 7 10 11 9 6 7 9 12 13 11 12 12 14 15 13 12 10 10 10 11 11 11 12 11 10 13 17 17 15 13 12 13 15 15 16 14 13 12 11 11 11 9 8 7 6 5 4 4 3 3 3 4 6 6 6 6 5 5 5 5 6 7 10 11 11 11 11 11 11 12 13 12 12 12 12 12 13 12 11 11 12 12 11 11 12 14 15
6 12 12 9 9 11 12 11 8 6 7 9 10 9 8 7 8 11 12 13 13 14 15 16 16 15 13 11 11 11 11 12 13 12 11 13 15 17 17 14 11 11 14 14 14 14 13 12 12 12 10 8 8 7 7 6 5 5 4 4 5 5 5 5 5 5 4 5 5 5 6 8 10 11 11 12 12 12 12 12 12 11 10 10 9 9 10 10 10 10 11 11 11 11 11 12 14
7 12 11 8 7 8 9 8 6 7 8 9 12 12 10 7 9 10 11 13 14 14 15 15 16 15 14 13 13 13 12 12 12 12 13 14 15 17 18 16 13 12 13 12 13 14 13 12 11 11 10 9 9 8 8 8 7 7 6 6 6 6 5 4 5 4 4 4 5 5 7 9 9 9 10 11 11 12 12 12 11 10 9 9 9 9 9 9 10 10 10 10 11 11 11 11 13
9 11 10 8 7 6 6 6 5 7 8 10 14 15 12 7 9 11 10 13 15 14 15 15 15 15 15 14 14 14 13 13 13 13 14 15 16 17 17 18 15 12 12 13 13 13 12 11 11 11 11 10 9 9 9 8 8 8 8 7 7 6 5 4 4 4 3 3 5 6 7 8 9 9 10 11 12 13 12 12 11 11 11 11 10 10 10 10 10 10 10 10 10 11 11 11 12
9 10 9 8 7 5 5 5 5 7 8 9 14 16 14 10 7 11 12 13 15 15 16 18 18 17 16 14 14 15 14 14 15 14 15 17 17 16 15 18 17 14 13 13 12 12 12 12 12 12 11 10 9 9 8 8 8 8 8 7 7 6 4 4 4 4 4 5 6 6 7 7 8 9 10 12 13 13 12 12 12 11 11 11 11 10 10 10 10 10 10 10 10 10 10 11 10
10 10 10 9 8 7 8 8 7 8 4 4 10 14 12 8 3 10 16 15 14 14 16 18 19 18 17 15 15 15 14 14 15 14 14 16 17 17 16 17 18 16 14 14 13 12 12 12 12 12 12 11 10 9 9 8 8 8 8 8 8 8 7 6 6 6 6 7 7 7 7 8 8 8 10 11 12 11 11 11 11 11 11 11 11 10 10 11 11 10 10 11 11 10 11 11 11
12 11 11 10 8 8 9 8 8 8 4 4 8 9 9 8 3 6 12 13 12 13 14 17 18 17 17 16 15 15 15 15 14 14 13 14 17 19 17 17 17 17 15 14 13 12 12 12 12 12 12 11 10 9 9 9 10 10 10 10 10 9 9 9 9 9 9 8 8 8 8 8 8 10 10 10 10 10 10 11 11 11 11 12 13 12 11 11 11 10 11 12 12 11 12 12 11
12 11 10 10 8 7 8 7 8 9 6 7 9 7 5 7 4 3 4 6 8 12 12 14 16 15 14 15 15 15 15 15 14 13 13 15 18 19 18 17 16 17 16 14 13 12 12 12 11 12 12 11 10 10 10 10 11 11 12 12 11 10 9 10 9 9 9 9 9 8 8 8 9 10 10 10 10 10 10 11 12 13 13 14 14 14 12 11 12 11 11 13 13 12 13 13 12
11 10 11 10 8 6 4 1 1 5 6 6 8 5 1 2 3 3 3 4 8 11 12 14 15 14 14 14 15 15 15 14 14 14 14 16 19 19 18 17 16 17 16 15 14 13 12 12 11 12 12 11 11 10 11 11 12 13 13 13 12 11 10 10 10 9 9 9 9 9 9 9 9 9 9 10 11 11 12 12 14 15 15 15 15 14 14 12 12 11 11 12 13 12 13 14 13
8 9 10 8 5 4 4 3 4 3 6 6 7 6 3 4 4 5 6 7 11 12 13 15 16 16 15 13 14 15 15 14 14 14 14 17 19 18 17 17 17 17 17 17 16 14 13 13 12 11 11 11 11 11 11 12 13 13 14 13 13 12 11 11 10 9 9 9 9 9 9 10 9 9 9 10 11 12 13 13 14 15 16 16 15 15 15 14 12 12 12 13 14 13 13 13 14
7 9 10 6 1 3 4 5 4 5 7 5 7 10 8 7 6 6 9 11 13 14 15 16 17 17 16 14 15 15 15 14 14 14 15 17 19 18 18 18 17 16 17 18 16 15 13 12 11 11 11 11 11 11 11 11 12 13 13 13 12 11 11 11 10 9 10 10 10 10 10 10 10 9 9 9 11 12 13 13 14 15 16 17 17 16 15 15 14 13 13 14 15 14 13 13 14
6 8 11 8 5 6 6 6 6 8 9 5 7 10 9 8 7 8 12 14 16 17 16 17 19 19 16 16 16 16 15 14 13 14 14 16 18 18 18 18 18 17 17 16 16 14 13 12 12 11 11 11 11 11 11 10 11 11 12 12 12 11 11 11 10 10 11 11 11 11 11 10 10 9 10 10 11 12 12 13 14 16 16 17 17 16 16 16 16 15 15 15 16 15 14 14 14
7 8 10 8 7 6 7 7 5 6 8 7 6 7 7 8 8 12 15 16 18 19 18 18 20 19 17 16 16 16 16 14 14 13 13 16 19 19 19 19 19 18 16 15 15 15 14 13 12 11 11 12 11 11 11 11 11 11 11 12 12 12 12 12 12 12 12 12 11 11 10 10 10 10 10 10 11 12 12 14 15 16 16 17 17 17 16 17 17 17 16 16 16 16 15 14 14
10 9 9 9 6 3 4 7 7 6 7 7 6 6 5 4 6 13 17 17 19 20 19 18 18 18 16 16 17 16 15 15 14 14 14 17 20 20 20 20 19 18 16 16 15 14 14 13 12 11 11 11 11 11 11 11 11 11 12 13 13 13 13 12 12 12 12 12 11 10 10 10 10 10 11 11 11 12 12 13 14 15 16 16 17 17 17 17 17 17 16 15 16 16 16 15 15
13 9 9 11 9 6 6 7 7 6 6 5 5 6 3 3 1 8 14 14 16 18 17 15 16 17 16 16 17 17 16 15 15 15 16 19 21 21 20 20 19 18 17 15 14 14 14 13 11 11 11 10 10 11 11 11 12 12 12 13 13 12 12 12 12 12 12 11 11 10 10 10 11 11 11 12 11 12 12 13 14 15 16 17 17 17 17 17 17 17 16 16 16 16 16 15 15
Wind_Direction
330 333 324 317 307 284 257 258 284 253 266 280 282 280 273 103 318 288 281 290 287 29 17 311 302 56 4 347 138 82 33 18 23 22 72 112 137 140 139 139 139 138 135 134 134 135 134 135 132 128 122 122 124 124 122 119 118 115 115 114 114 114 114 114 115 116 116 115 113 112 110 106 104 103 102 100 98 98 97 96 97 98 100 102 103 103 103 104 103 101 99 94 90 84 81 80 76
332 325 315 307 285 270 257 238 288 283 269 279 277 279 0 128 272 282 299 314 335 40 28 332 138 77 356 30 128 126 57 43 60 80 95 127 134 134 139 137 137 137 134 133 133 133 132 136 134 130 126 125 127 125 122 118 117 116 115 115 115 115 115 116 117 118 116 114 113 112 108 106 104 102 101 98 97 95 94 92 94 97 99 100 99 100 101 101 101 100 97 95 92 87 87 82 77
313 312 303 273 252 254 254 225 273 286 278 284 286 314 16 298 303 339 334 343 46 56 70 125 145 90 289 196 143 137 93 70 87 100 117 137 134 134 140 135 135 136 133 132 133 133 132 138 136 131 130 129 127 127 125 122 120 119 119 119 119 119 120 120 121 119 117 116 113 110 108 106 104 103 100 98 94 92 91 90 91 96 100 102 100 98 98 99 99 98 97 97 94 92 91 81 74
291 293 276 261 239 231 245 246 268 284 279 282 289 39 37 320 37 63 69 57 78 120 152 166 155 60 309 197 94 63 98 87 95 110 131 139 136 138 137 133 134 133 132 133 133 133 134 140 136 133 134 130 128 130 129 124 123 123 123 123 123 125 125 124 122 119 118 116 113 110 108 105 103 102 99 97 95 92 91 89 88 92 98 101 102 103 101 99 98 97 99 101 99 95 86 75 71
266 268 250 259 258 254 263 267 271 268 270 278 289 12 61 61 97 103 98 77 171 193 200 199 165 100 34 37 13 91 100 98 111 121 128 126 132 136 135 134 134 133 133 133 134 132 137 141 136 137 135 130 131 132 130 127 127 127 125 125 125 126 126 124 123 120 117 115 113 109 108 106 102 98 96 94 92 91 90 91 91 93 98 101 105 106 103 103 102 99 101 104 99 89 76 67 63
227 220 219 243 271 313 265 261 261 259 264 269 286 332 90 107 100 118 111 105 141 183 194 206 196 140 119 54 38 49 54 111 126 126 126 128 135 135 133 136 134 132 132 134 133 131 140 142 137 139 134 129 130 131 131 129 129 128 126 126 126 127 127 126 123 119 117 116 113 110 108 104 100 95 93 89 88 88 87 91 93 99 105 105 106 106 109 111 105 100 102 104 95 85 73 64 61
229 214 191 220 221 234 252 259 264 269 273 251 282 301 164 151 118 173 165 146 148 152 187 196 173 144 123 118 82 51 19 107 122 129 127 131 135 135 135 136 133 130 133 134 129 133 142 141 137 136 132 129 128 129 131 131 129 127 127 126 128 130 129 127 123 119 118 116 113 109 104 100 96 94 91 88 85 82 82 84 84 92 108 118 119 120 130 121 109 111 113 110 100 90 75 64 63
227 235 199 238 229 211 251 259 263 269 290 87 277 267 204 167 166 244 230 216 169 138 169 160 182 184 116 148 103 76 103 101 115 124 124 133 136 137 137 135 133 131 136 134 128 135 141 137 136 133 130 128 127 130 131 132 129 128 129 129 131 131 128 127 123 120 118 116 111 106 102 99 95 92 90 89 84 81 81 79 77 81 105 138 144 142 148 131 121 128 123 115 106 92 78 64 61
209 227 214 245 247 233 251 258 259 261 241 208 237 239 240 222 228 254 251 250 275 184 167 152 198 199 117 129 103 98 109 109 120 122 126 135 136 137 136 135 135 134 136 132 129 134 137 136 136 131 128 128 126 129 131 132 131 131 132 131 133 132 128 126 123 120 118 115 111 107 103 97 91 87 85 86 85 85 84 81 75 73 87 128 150 155 153 144 142 143 134 123 112 96 78 63 60
201 220 228 233 247 247 249 256 254 247 225 225 228 229 238 238 240 243 249 248 218 190 155 161 210 159 126 122 107 108 116 123 126 123 129 132 132 135 134 135 136 135 135 131 130 134 135 135 134 129 127 126 124 126 129 134 136 136 134 132 133 133 129 126 123 120 118 115 112 108 101 94 87 83 82 84 84 86 86 82 74 67 69 85 124 156 159 164 165 156 146 133 121 103 81 64 61
206 202 238 236 236 246 252 258 249 222 172 203 223 223 233 239 245 241 242 241 222 196 164 191 185 140 130 118 103 119 129 133 130 127 130 130 131 133 132 135 137 136 135 134 133 135 136 134 131 127 124 122 124 127 133 139 141 139 136 134 133 133 129 125 122 120 120 116 112 105 96 89 82 78 80 86 86 87 88 85 76 63 58 66 88 125 148 165 170 158 147 139 130 109 86 69 64
226 190 206 234 237 246 254 262 256 233 178 202 204 192 221 232 237 234 230 227 218 200 185 197 160 137 137 124 119 135 140 137 130 131 132 131 132 132 133 133 136 136 137 136 134 136 137 133 129 127 127 126 129 133 137 142 142 142 140 137 135 133 128 125 122 120 120 115 109 101 92 85 82 80 79 89 92 89 89 87 78 66 57 61 76 99 129 149 155 151 145 141 134 113 92 76 70
234 201 209 232 246 251 253 262 252 252 217 190 158 140 213 231 226 224 224 219 209 200 188 183 152 144 137 122 128 142 142 137 132 135 133 132 133 131 132 131 134 135 137 136 133 136 136 135 132 131 132 130 133 135 136 139 142 145 143 141 138 136 132 128 124 119 116 112 106 98 93 88 86 83 78 88 94 91 91 89 82 73 62 61 74 95 117 143 150 148 145 141 133 114 95 83 77
227 214 233 235 243 247 247 253 232 242 218 142 116 94 220 228 229 227 228 214 202 196 166 157 160 147 132 129 141 156 143 138 137 138 134 131 131 129 129 129 131 133 136 135 133 134 136 136 134 134 134 130 128 128 130 134 140 144 144 144 141 137 134 128 122 117 113 108 103 98 96 93 90 85 81 87 94 96 94 95 95 85 69 60 71 95 114 138 149 147 143 139 129 114 95 85 82
227 219 240 242 239 235 231 240 237 242 197 129 109 347 229 212 235 228 224 216 187 151 134 148 176 159 154 162 164 160 144 139 139 136 134 130 129 127 125 128 130 133 133 131 132 133 136 135 133 135 135 136 129 123 125 130 138 142 143 144 140 132 127 123 117 113 111 106 101 102 101 95 91 83 79 80 86 96 94 92 97 94 86 72 69 93 116 134 148 149 144 140 130 116 96 84 85
228 225 226 241 236 229 214 211 226 236 170 123 112 341 256 187 204 226 220 225 157 144 168 158 175 206 173 166 147 147 143 139 138 135 133 129 128 126 126 129 128 129 127 127 130 131 133 131 131 133 132 134 127 124 125 128 138 142 144 145 141 133 126 119 112 113 114 110 111 109 100 92 92 77 72 68 67 88 100 97 92 91 89 80 74 86 113 136 150 153 151 149 138 122 102 88 88
213 224 224 232 229 228 203 194 207 216 135 122 118 350 291 207 174 221 206 213 164 160 175 137 135 87 127 128 132 141 142 139 139 138 135 130 131 132 131 131 127 127 125 125 128 129 128 124 125 128 129 130 125 125 127 128 131 132 141 145 143 139 130 122 119 126 125 123 117 100 93 97 105 96 89 86 72 78 98 102 93 88 84 77 75 76 91 129 153 162 164 159 150 137 108 87 85
196 213 222 225 228 223 193 195 190 110 130 115 26 16 313 278 169 177 178 186 168 158 148 120 113 98 103 119 133 138 139 141 143 144 140 139 142 140 137 136 135 133 129 128 127 127 124 123 128 133 135 134 132 130 130 131 129 127 133 139 141 142 141 139 134 127 122 123 105 92 103 109 112 109 106 111 115 115 104 106 108 97 84 70 72 72 70 84 132 170 179 173 165 152 120 93 92
206 215 222 229 233 192 140 194 157 199 173 16 332 353 321 274 169 174 186 176 168 164 154 140 124 114 117 129 138 139 141 146 148 149 145 146 146 142 141 139 138 136 136 134 129 128 128 132 136 138 139 137 136 132 131 133 133 132 133 139 145 145 146 145 136 126 120 124 119 118 120 116 114 108 104 106 121 128 109 99 101 94 79 59 67 69 61 58 64 124 185 193 185 172 156 174 182
215 221 226 231 220 146 153 190 180 240 322 332 310 331 310 237 171 185 189 172 177 179 164 159 148 137 139 141 143 143 145 148 149 151 147 146 141 140 143 139 140 141 140 135 130 131 136 140 137 138 139 138 137 132 132 133 134 137 138 147 147 141 143 140 135 133 131 132 132 133 122 115 111 105 104 95 106 117 99 76 67 63 56 32 47 60 44 38 42 46 48 194 196 206 210 211 204
206 215 234 242 187 202 180 183 216 299 327 314 311 311 276 193 173 189 186 176 189 189 170 168 157 147 149 148 149 148 146 148 149 151 149 143 139 141 143 139 141 138 137 137 135 138 140 141 137 137 137 137 137 133 133 133 135 138 140 147 138 131 138 140 138 139 142 140 136 132 119 114 106 101 105 97 112 128 123 95 75 72 71 42 50 73 322 0 22 26 24 148 203 220 222 223 225
209 214 237 272 191 212 160 166 220 325 298 293 299 298 233 169 184 193 190 184 192 180 163 163 154 149 153 152 151 149 147 148 148 151 148 141 140 142 142 138 137 137 141 143 141 142 142 140 138 138 136 135 133 130 132 133 134 134 129 131 129 127 133 136 139 142 144 143 136 130 126 120 106 98 99 102 117 117 114 110 107 106 93 64 56 53 302 321 277 253 309 229 220 225 226 229 231
220 213 220 226 222 220 145 177 210 253 271 280 293 304 171 189 193 188 194 180 28 149 149 151 152 149 151 152 151 148 147 147 147 150 147 144 143 142 141 140 141 145 145 143 143 143 142 140 138 136 133 132 129 128 131 132 133 134 128 127 129 129 131 133 134 138 139 141 140 135 137 91 78 79 91 109 104 88 86 91 104 95 63 43 36 11 355 306 269 262 259 255 256 237 228 231 233
226 218 197 215 225 228 237 238 229 248 266 279 289 284 217 208 188 179 189 145 51 146 141 143 146 147 151 151 149 147 146 145 145 147 144 143 142 139 142 143 145 147 143 142 143 142 141 139 137 134 132 131 128 129 130 131 135 137 136 134 131 127 129 133 138 146 146 155 155 149 180 1 6 345 339 301 8 46 46 28 322 338 355 330 327 322 315 303 286 268 260 257 258 252 243 241 241
223 224 183 201 212 220 233 243 246 253 264 267 262 253 223 206 179 174 176 136 128 139 138 144 142 146 152 150 149 149 146 142 137 137 138 137 138 139 144 146 146 145 143 143 142 141 141 138 137 134 132 130 129 130 129 133 138 138 138 136 132 129 131 135 143 150 152 165 167 161 189 247 307 342 354 323 350 0 350 336 325 332 328 316 312 316 308 296 291 281 276 268 263 261 256 253 253
212 217 205 201 204 210 222 237 246 250 253 245 235 232 212 185 173 169 160 143 144 144 147 148 147 149 150 151 153 150 143 136 131 132 136 138 140 142 145 147 147 146 144 143 142 141 141 139 137 134 133 132 132 133 133 138 140 138 136 130 126 125 125 126 130 141 151 160 154 139 162 202 247 322 339 10 20 7 0 355 349 345 337 330 321 323 317 300 293 285 286 284 279 273 267 264 264
189 210 217 216 218 210 224 239 240 248 233 221 227 216 181 165 190 186 159 155 148 150 154 151 152 151 150 155 153 148 140 133 131 132 135 141 145 145 146 148 146 146 144 143 143 142 143 140 136 135 135 135 135 137 139 142 138 133 128 123 121 121 121 122 124 132 129 117 107 101 95 99 147 277 340 38 28 15 28 19 12 8 352 342 335 330 321 313 306 297 296 292 288 284 279 273 269
159 203 215 220 230 225 228 233 225 235 215 213 226 192 163 173 211 196 153 159 155 153 154 154 157 150 152 156 148 144 140 135 134 134 138 143 148 149 149 150 148 147 146 145 144 143 142 136 132 133 134 136 138 139 139 137 131 126 123 121 122 120 120 121 119 117 107 96 91 83 88 86 74 39 43 63 50 26 30 26 24 19 2 340 332 329 323 320 312 305 306 303 297 292 285 277 274
166 196 217 208 217 225 221 219 217 224 205 198 198 174 175 190 204 161 142 154 153 151 151 154 157 150 151 151 143 143 139 139 139 137 141 145 150 153 150 150 150 148 147 147 144 141 139 134 133 133 133 135 135 136 135 131 127 124 122 121 120 116 114 110 104 100 97 89 80 68 65 54 36 43 53 63 62 43 30 32 28 8 350 328 324 325 322 319 311 310 315 315 310 302 292 284 280
193 201 233 200 201 218 209 204 210 217 196 183 193 195 184 177 167 120 136 160 154 151 154 155 157 152 150 142 136 138 137 142 143 141 145 149 153 153 150 151 152 148 146 147 143 141 140 140 142 138 136 135 132 133 131 128 127 122 121 121 117 114 110 102 95 89 80 71 69 55 39 39 27 29 36 48 51 30 24 31 0 334 326 315 321 325 321 316 309 311 314 313 310 305 297 292 289
201 197 226 217 210 198 181 188 201 199 176 178 210 232 180 147 83 38 37 153 140 124 122 137 144 145 143 133 132 135 134 137 138 142 147 150 155 154 151 150 148 145 144 145 145 145 145 145 145 140 139 134 130 131 130 128 124 119 117 115 110 106 102 94 85 77 68 55 49 35 23 26 25 23 25 36 30 357 358 358 341 331 321 312 313 315 314 310 308 309 311 309 305 302 296 294 293
203 199 204 212 219 171 150 175 202 196 171 182 221 231 152 113 65 49 52 80 101 93 82 81 71 62 69 73 98 123 120 126 135 143 148 150 155 151 144 140 139 141 144 146 147 146 145 145 142 139 138 133 130 130 127 124 118 113 109 104 97 94 90 83 75 67 55 44 44 37 26 36 31 14 13 12 345 328 336 338 338 328 320 316 311 311 307 303 307 307 305 304 300 296 291 290 289
199 209 204 195 205 178 145 163 197 202 175 184 223 228 123 99 86 103 130 123 126 126 116 108 93 69 64 59 39 70 98 126 134 140 144 148 150 140 133 137 141 141 143 147 145 143 143 143 139 137 135 130 128 129 125 120 114 110 106 100 94 88 82 77 72 64 56 45 47 46 39 47 41 22 13 339 319 321 324 323 327 324 319 317 309 312 308 301 307 305 301 300 295 293 288 286 287
188 204 212 192 199 193 156 153 175 197 184 185 216 217 103 110 121 156 166 140 137 132 124 120 112 112 104 97 95 67 44 71 100 112 132 132 132 132 134 139 141 142 143 143 137 135 140 141 136 133 132 129 129 130 126 120 115 110 106 102 94 86 78 72 69 62 55 45 45 46 38 37 33 26 15 354 344 334 330 327 327 327 320 314 309 311 310 304 306 304 303 304 301 300 297 293 294
185 192 203 188 196 205 174 150 159 186 191 191 200 171 110 118 130 152 158 146 136 123 126 122 110 113 111 117 128 86 49 24 25 25 70 102 120 132 136 139 143 146 140 133 131 133 136 136 134 132 131 129 130 130 125 120 118 113 109 104 94 83 76 72 67 58 54 49 46 45 41 39 33 29 20 5 359 351 344 338 335 334 326 320 319 316 317 317 315 312 312 315 314 307 301 299 299
190 187 197 188 188 198 154 124 144 179 189 190 189 154 122 132 136 146 153 150 135 119 121 120 112 115 113 114 114 98 92 70 24 4 27 67 101 122 126 129 135 140 132 128 134 137 135 133 130 128 125 124 125 124 122 121 119 113 106 98 86 78 73 68 63 57 57 57 52 49 47 47 41 35 26 15 11 4 354 350 346 344 338 331 327 325 327 328 323 320 319 318 316 309 301 297 297
190 185 196 197 189 173 125 120 143 185 192 179 167 131 119 134 139 148 156 150 142 132 128 128 127 125 126 124 113 110 113 103 81 34 39 67 81 98 108 109 115 124 126 126 131 133 130 126 121 116 113 114 114 111 112 110 106 107 99 89 86 80 71 69 68 67 71 67 59 56 54 52 47 40 32 25 20 12 3 2 359 351 348 341 336 335 334 334 327 322 317 310 308 306 302 297 296
190 190 190 195 191 154 127 134 146 186 196 162 144 122 115 131 131 144 163 154 146 142 137 137 134 129 134 132 124 123 117 100 95 85 83 82 77 92 99 94 98 108 114 116 117 116 111 107 107 105 103 102 96 91 93 91 90 97 96 95 99 93 79 83 89 88 85 76 66 62 60 56 48 40 33 26 22 18 13 8 1 356 355 351 347 343 336 334 330 325 318 314 312 307 304 304 303
192 197 194 193 170 134 124 137 150 179 195 160 144 121 111 121 119 130 163 158 146 144 141 137 134 135 140 138 138 136 121 105 103 109 116 97 92 109 107 92 93 97 103 107 106 103 98 96 98 95 93 90 81 75 77 83 87 92 95 104 116 111 99 102 103 97 90 82 72 63 58 53 47 41 32 27 23 19 16 9 1 357 356 358 359 353 345 342 336 332 328 325 322 313 308 310 307
199 199 200 186 157 157 160 150 155 168 179 158 140 120 114 112 111 114 119 140 144 145 139 134 136 140 145 149 149 141 129 123 123 125 122 114 119 120 110 105 101 93 95 101 104 102 98 97 96 93 90 85 78 75 80 87 91 90 91 103 113 114 113 111 103 93 88 83 74 65 57 49 47 46 41 37 33 29 25 20 16 11 6 9 12 8 4 1 352 345 340 335 329 321 316 317 314
196 203 211 179 164 182 170 145 152 155 155 153 140 131 136 139 144 138 125 139 149 148 142 144 143 135 139 144 136 126 129 132 130 127 123 124 121 106 104 111 105 96 94 97 102 102 99 95 93 93 89 85 85 85 91 99 103 105 109 117 121 124 125 121 111 98 91 85 76 68 60 54 54 54 51 49 45 45 42 34 31 28 21 17 15 12 10 6 359 353 349 341 332 324 320 317 311
188 205 233 167 163 169 145 144 155 157 162 169 171 178 163 168 180 168 157 156 157 156 152 157 160 149 144 139 128 122 123 125 126 126 124 120 108 94 95 101 101 100 97 97 104 105 103 98 97 98 92 89 93 90 88 97 111 123 135 142 146 148 135 116 107 103 95 85 79 74 64 60 61 58 56 55 53 52 49 43 38 34 27 19 14 10 6 0 356 354 351 344 333 326 322 314 307
187 182 174 137 157 160 154 161 172 180 177 179 199 216 174 173 190 179 172 164 161 164 161 161 169 171 162 143 138 144 138 124 118 116 117 118 113 103 92 88 94 101 104 107 108 107 104 101 104 100 90 88 90 88 86 88 94 106 124 125 118 137 122 105 98 96 91 82 78 74 67 64 60 53 52 53 52 51 47 43 37 29 21 12 6 4 359 355 350 343 341 339 329 320 317 310 305
167 155 157 148 156 162 167 178 195 198 168 169 204 223 194 182 182 176 178 172 167 172 170 167 171 173 167 154 150 153 145 130 123 120 122 125 119 111 103 95 93 100 110 113 109 107 106 108 110 97 87 87 85 84 91 91 88 88 92 86 77 91 105 107 99 87 82 77 73 70 72 71 60 52 49 48 47 44 39 35 29 19 10 4 2 359 355 351 344 335 334 333 327 320 316 309 305
131 144 166 164 163 168 177 191 203 191 172 184 201 208 209 196 169 167 180 186 184 184 181 176 174 171 166 161 156 152 142 131 130 130 130 132 122 115 116 114 105 106 112 112 108 108 105 103 102 93 87 87 84 89 94 92 93 94 98 106 106 104 103 102 90 79 75 72 69 73 79 74 61 51 45 43 42 38 35 34 28 21 15 12 7 358 352 347 341 336 336 336 334 330 323 316 316
126 150 172 169 171 172 182 202 197 180 201 211 191 192 215 200 168 173 185 195 196 192 190 183 174 167 163 161 155 147 137 131 133 131 133 138 127 121 123 120 114 114 113 106 101 102 100 96 95 93 90 87 87 92 92 91 94 97 98 101 103 101 101 95 83 76 69 64 68 75 79 70 56 46 41 44 47 44 43 45 42 36 32 26 15 3 356 350 345 343 340 338 339 335 330 327 326
139 159 171 167 177 173 186 210 191 187 219 218 189 193 220 214 181 183 190 199 197 190 189 182 174 168 162 158 154 148 141 140 140 136 137 138 126 123 126 119 115 116 112 103 98 100 102 101 100 97 92 89 89 88 86 88 90 93 96 97 96 91 89 87 76 64 55 64 78 82 82 71 57 51 46 49 55 53 49 48 46 38 31 26 17 8 0 355 354 354 351 347 346 343 339 335 330
165 179 180 173 178 177 190 195 191 211 226 211 185 189 216 232 203 184 192 201 195 189 186 182 180 174 164 158 159 157 149 145 144 142 142 140 132 130 129 122 120 120 114 109 109 110 108 106 103 98 92 87 86 82 81 83 82 85 91 93 93 86 78 76 67 63 66 75 86 88 86 75 64 57 48 46 49 47 42 39 36 31 25 22 16 8 4 4 6 6 4 0 357 353 350 347 340
190 192 185 184 182 183 200 194 197 217 212 173 180 186 209 234 200 177 192 198 193 191 187 181 181 177 168 164 164 160 150 147 148 146 148 148 143 141 138 132 131 130 126 121 120 116 111 108 103 99 94 87 84 81 79 79 79 82 86 88 88 83 79 79 78 78 81 83 83 81 80 76 67 59 50 43 39 38 36 34 31 29 24 20 15 13 14 14 16 16 13 10 6 2 358 355 350
196 195 188 195 189 184 203 197 197 209 161 128 180 188 208 217 148 153 188 189 185 191 185 176 177 178 172 166 163 159 154 152 153 152 153 153 149 146 145 144 140 135 132 127 122 118 113 109 103 98 95 89 84 82 79 80 81 82 84 87 87 85 82 81 82 82 85 85 82 77 78 77 70 61 55 47 40 38 41 37 33 32 29 26 23 22 23 21 22 23 19 15 11 5 1 356 352
197 200 197 207 203 192 205 202 201 203 165 140 170 182 214 205 139 92 159 158 176 189 174 166 173 173 168 164 164 165 161 159 159 156 156 154 151 151 151 149 144 139 135 131 125 122 117 111 104 100 95 90 85 84 83 84 84 83 84 84 84 85 84 83 82 83 85 85 83 80 78 76 72 65 59 53 48 46 46 42 39 38 34 32 29 26 25 23 23 25 23 18 14 8 4 359 355
195 203 206 212 216 205 193 202 198 179 165 158 175 191 219 152 118 116 138 143 175 178 157 159 170 165 160 163 168 171 166 164 164 160 157 155 153 154 154 151 146 141 137 133 129 126 122 114 107 99 93 90 87 86 87 86 85 84 82 82 82 84 85 84 83 82 84 85 82 80 78 76 76 71 63 58 54 52 50 46 43 40 37 34 31 29 28 25 23 24 23 19 15 11 8 4 0
180 202 209 203 220 217 169 117 64 116 191 182 178 191 159 145 161 150 154 169 175 172 164 168 170 163 162 165 171 176 171 165 163 158 154 154 154 153 150 147 145 142 137 133 130 125 120 113 105 96 89 87 86 87 89 87 86 84 82 81 81 82 83 84 84 83 83 84 83 81 81 80 79 73 68 62 58 55 51 48 44 41 39 36 34 32 30 27 25 25 22 19 15 10 10 9 5
183 198 196 170 211 247 204 185 150 187 217 186 177 202 191 184 186 147 157 175 173 176 179 177 171 168 171 172 173 176 170 163 159 155 152 153 153 152 149 146 144 142 137 132 129 123 117 110 102 92 86 86 86 87 90 88 87 84 82 82 80 80 82 83 84 85 85 87 86 85 84 83 78 74 71 67 62 57 51 48 46 43 41 38 36 35 31 29 29 26 23 19 14 10 9 9 6
229 213 192 180 204 211 206 211 192 198 216 201 191 209 206 203 190 156 169 179 176 178 183 183 181 179 178 175 172 169 164 162 158 155 153 153 153 152 150 147 143 141 137 130 127 122 116 111 103 92 86 86 87 89 90 89 87 85 83 83 82 81 83 83 84 86 87 89 89 88 85 82 77 72 71 67 63 58 53 50 47 45 43 39 37 36 32 32 31 28 25 20 14 9 7 6 3
236 231 200 197 218 218 208 212 208 204 214 211 196 201 214 216 186 165 179 185 180 180 184 190 191 186 181 174 169 166 162 161 157 155 154 152 151 150 148 146 141 140 136 130 127 123 118 112 102 93 88 88 90 91 92 90 87 86 86 86 86 85 85 86 87 87 88 87 86 86 82 77 75 70 67 66 62 58 55 52 49 46 44 41 38 36 33 32 30 28 24 19 15 11 9 6 2
203 216 199 195 208 233 222 209 212 224 222 211 208 212 212 200 167 176 187 187 182 183 185 191 191 184 177 171 168 165 161 159 156 154 153 150 150 147 145 143 140 138 136 133 131 125 117 110 101 94 92 93 95 95 95 93 90 90 90 90 89 88 86 86 85 84 84 83 81 80 77 75 72 67 64 62 60 58 55 53 51 47 44 41 38 36 33 31 29 26 23 18 13 11 9 6 2
196 204 202 200 200 205 213 206 201 222 236 224 224 223 177 77 88 194 192 184 180 183 183 187 188 178 170 168 168 163 159 159 158 154 152 150 148 145 142 143 142 140 140 137 133 124 115 108 103 99 97 99 102 101 99 99 99 96 92 91 88 86 84 82 81 80 80 80 78 76 74 73 70 64 62 59 57 56 54 52 50 46 43 39 36 34 31 29 26 23 20 16 11 8 6 4 1